TimeEST,TemperatureF,Dew PointF,Humidity,Sea Level PressureIn,VisibilityMPH,Wind Direction,Wind SpeedMPH,Gust SpeedMPH,PrecipitationIn,Events,Conditions,WindDirDegrees,DateUTC
12:15 AM,17.6,15.8,93,30.34,10.0,SSE,5.8,-,N/A,,Overcast,160,2013-01-27 05:15:00
12:35 AM,19.4,15.8,86,30.34,10.0,SSE,4.6,-,N/A,,Overcast,150,2013-01-27 05:35:00
12:54 AM,19.4,15.8,86,30.34,10.0,SE,4.6,-,N/A,,Overcast,140,2013-01-27 05:54:00
1:15 AM,19.4,15.8,86,30.33,10.0,SE,4.6,-,N/A,,Overcast,130,2013-01-27 06:15:00
1:35 AM,19.4,15.8,86,30.33,10.0,ESE,4.6,-,N/A,,Overcast,120,2013-01-27 06:35:00
1:54 AM,19.4,15.8,86,30.32,10.0,SE,5.8,-,N/A,Snow,Light Snow,130,2013-01-27 06:54:00
2:15 AM,19.4,15.8,86,30.32,10.0,SE,5.8,-,N/A,Snow,Light Snow,130,2013-01-27 07:15:00
2:35 AM,19.4,15.8,86,30.32,10.0,SE,6.9,-,N/A,,Overcast,140,2013-01-27 07:35:00
2:54 AM,19.4,17.6,93,30.31,10.0,SE,8.1,-,N/A,,Overcast,140,2013-01-27 07:54:00
3:15 AM,21.2,17.6,86,30.31,10.0,SSE,6.9,-,N/A,,Overcast,150,2013-01-27 08:15:00
3:34 AM,21.2,17.6,86,30.32,10.0,SSE,6.9,-,N/A,,Overcast,160,2013-01-27 08:34:00
3:54 AM,21.2,17.6,86,30.30,10.0,SSE,6.9,-,N/A,,Overcast,160,2013-01-27 08:54:00
4:15 AM,21.2,19.4,93,30.31,10.0,SSE,5.8,-,N/A,,Overcast,160,2013-01-27 09:15:00
4:34 AM,21.2,19.4,93,30.30,10.0,SE,6.9,-,N/A,,Overcast,140,2013-01-27 09:34:00
4:55 AM,21.2,19.4,93,30.29,10.0,SSE,8.1,-,N/A,,Overcast,150,2013-01-27 09:55:00
5:15 AM,21.2,19.4,93,30.29,10.0,SE,6.9,-,N/A,,Overcast,140,2013-01-27 10:15:00
5:34 AM,21.2,19.4,93,30.28,10.0,SSE,9.2,-,N/A,,Overcast,150,2013-01-27 10:34:00
5:55 AM,21.2,19.4,93,30.27,10.0,SSE,9.2,-,N/A,,Overcast,150,2013-01-27 10:55:00
6:15 AM,21.2,19.4,93,30.27,10.0,SE,6.9,-,N/A,,Overcast,140,2013-01-27 11:15:00
6:34 AM,23.0,19.4,86,30.26,10.0,SE,8.1,-,N/A,,Overcast,140,2013-01-27 11:34:00
7:14 AM,24.8,21.2,86,30.26,10.0,SSE,9.2,-,N/A,,Overcast,150,2013-01-27 12:14:00
7:34 AM,24.8,23.0,93,30.25,4.0,SSE,10.4,-,N/A,,Overcast,160,2013-01-27 12:34:00
7:55 AM,24.8,23.0,93,30.25,7.0,South,9.2,-,N/A,,Overcast,170,2013-01-27 12:55:00
8:14 AM,26.6,24.8,93,30.26,5.0,SSW,9.2,-,N/A,Snow,Light Snow,200,2013-01-27 13:14:00
8:34 AM,24.8,23.0,93,30.26,5.0,SSW,8.1,-,N/A,Snow,Light Snow,210,2013-01-27 13:34:00
8:55 AM,24.8,23.0,93,30.25,7.0,South,5.8,-,N/A,,Overcast,190,2013-01-27 13:55:00
9:14 AM,24.8,23.0,93,30.26,7.0,South,5.8,-,N/A,,Overcast,190,2013-01-27 14:14:00
9:35 AM,24.8,23.0,93,30.25,10.0,South,3.5,-,N/A,,Overcast,170,2013-01-27 14:35:00
9:55 AM,24.8,23.0,93,30.25,10.0,South,4.6,-,N/A,,Overcast,170,2013-01-27 14:55:00
10:14 AM,24.8,23.0,93,30.25,7.0,SSE,5.8,-,N/A,,Overcast,160,2013-01-27 15:14:00
10:35 AM,24.8,24.8,100,30.25,7.0,South,6.9,-,N/A,,Overcast,170,2013-01-27 15:35:00
10:55 AM,26.6,24.8,93,30.25,10.0,South,11.5,-,N/A,,Overcast,170,2013-01-27 15:55:00
11:14 AM,26.6,26.6,100,30.25,10.0,South,10.4,-,N/A,,Overcast,180,2013-01-27 16:14:00
11:35 AM,28.4,26.6,93,30.25,10.0,South,11.5,-,N/A,,Overcast,180,2013-01-27 16:35:00
11:54 AM,28.4,26.6,93,30.24,10.0,South,13.8,18.4,N/A,,Overcast,180,2013-01-27 16:54:00
12:14 PM,28.4,26.6,93,30.23,10.0,South,16.1,23.0,N/A,,Overcast,180,2013-01-27 17:14:00
12:35 PM,28.4,26.6,93,30.22,10.0,South,16.1,20.7,N/A,,Overcast,180,2013-01-27 17:35:00
12:54 PM,28.4,26.6,93,30.21,10.0,South,15.0,21.9,N/A,,Overcast,180,2013-01-27 17:54:00
1:14 PM,28.4,26.6,93,30.21,10.0,South,12.7,18.4,N/A,,Overcast,170,2013-01-27 18:14:00
1:34 PM,28.4,26.6,93,30.20,10.0,South,12.7,17.3,N/A,,Overcast,180,2013-01-27 18:34:00
1:54 PM,28.4,26.6,93,30.19,10.0,South,10.4,-,N/A,,Overcast,180,2013-01-27 18:54:00
2:15 PM,30.2,28.4,93,30.17,7.0,South,15.0,20.7,N/A,,Overcast,180,2013-01-27 19:15:00
2:34 PM,30.2,28.4,93,30.16,5.0,South,13.8,19.6,N/A,,Overcast,180,2013-01-27 19:34:00
2:55 PM,30.2,28.4,93,30.16,5.0,South,15.0,24.2,N/A,,Overcast,180,2013-01-27 19:55:00
3:15 PM,30.2,28.4,93,30.16,5.0,South,13.8,19.6,N/A,,Overcast,190,2013-01-27 20:15:00
3:34 PM,30.2,28.4,93,30.15,5.0,South,15.0,21.9,N/A,,Overcast,180,2013-01-27 20:34:00
3:55 PM,30.2,28.4,93,30.15,7.0,South,15.0,23.0,N/A,,Overcast,190,2013-01-27 20:55:00
4:15 PM,30.2,28.4,93,30.15,7.0,South,11.5,23.0,N/A,,Overcast,180,2013-01-27 21:15:00
4:34 PM,30.2,26.6,86,30.15,10.0,South,13.8,19.6,N/A,,Overcast,180,2013-01-27 21:34:00
4:55 PM,30.2,26.6,86,30.15,10.0,South,13.8,-,N/A,,Overcast,180,2013-01-27 21:55:00
5:14 PM,28.4,26.6,93,30.16,10.0,South,15.0,20.7,N/A,,Overcast,180,2013-01-27 22:14:00
5:34 PM,28.4,26.6,93,30.16,10.0,South,12.7,-,N/A,,Overcast,180,2013-01-27 22:34:00
5:55 PM,28.4,24.8,86,30.16,10.0,South,11.5,18.4,N/A,,Overcast,180,2013-01-27 22:55:00
6:14 PM,28.4,24.8,86,30.16,10.0,South,12.7,-,N/A,,Overcast,180,2013-01-27 23:14:00
6:35 PM,28.4,24.8,86,30.15,10.0,South,10.4,17.3,N/A,,Overcast,170,2013-01-27 23:35:00
6:54 PM,28.4,24.8,86,30.15,10.0,South,9.2,-,N/A,,Overcast,170,2013-01-27 23:54:00
7:14 PM,28.4,24.8,86,30.15,10.0,South,6.9,-,N/A,,Overcast,170,2013-01-28 00:14:00
7:35 PM,28.4,24.8,86,30.14,10.0,SSE,8.1,-,N/A,,Overcast,160,2013-01-28 00:35:00
7:54 PM,28.4,24.8,86,30.14,10.0,SSE,9.2,-,N/A,,Overcast,160,2013-01-28 00:54:00
8:15 PM,28.4,24.8,86,30.13,10.0,SSE,8.1,-,N/A,,Overcast,150,2013-01-28 01:15:00
8:35 PM,28.4,24.8,86,30.12,10.0,SSE,10.4,-,N/A,,Overcast,150,2013-01-28 01:35:00
8:54 PM,28.4,24.8,86,30.12,10.0,SSE,10.4,-,N/A,,Overcast,150,2013-01-28 01:54:00
9:15 PM,28.4,24.8,86,30.11,10.0,SSE,12.7,-,N/A,,Overcast,150,2013-01-28 02:15:00
9:35 PM,26.6,24.8,93,30.10,10.0,SSE,9.2,-,N/A,,Overcast,150,2013-01-28 02:35:00
9:54 PM,26.6,24.8,93,30.09,4.0,SE,8.1,-,N/A,Snow,Light Snow,140,2013-01-28 02:54:00
10:15 PM,26.6,24.8,93,30.08,5.0,SE,8.1,-,N/A,Snow,Light Snow,140,2013-01-28 03:15:00
10:34 PM,26.6,24.8,93,30.07,3.0,SE,8.1,-,N/A,Snow,Light Snow,140,2013-01-28 03:34:00
10:54 PM,26.6,24.8,93,30.07,2.5,SE,6.9,-,N/A,Snow,Light Snow,130,2013-01-28 03:54:00
11:14 PM,26.6,24.8,93,30.05,7.0,ESE,6.9,-,N/A,Snow,Light Snow,110,2013-01-28 04:14:00
11:34 PM,26.6,24.8,93,30.04,5.0,ESE,9.2,-,N/A,Snow,Light Snow,110,2013-01-28 04:34:00
11:55 PM,26.6,24.8,93,30.04,2.5,ESE,9.2,-,N/A,Snow,Light Snow,120,2013-01-28 04:55:00